Location: Fort Wayne
(41.1310°N, 85.1290°W)
Time: 11:23:26
(UTC-04:00)

Cosmos 2056 Rocket - Visible Passes

Search period start: 22 October 2014 00:00
Search period end: 01 November 2014 00:00
Orbit: 743 x 803 km, 74.0° (Epoch: 22 October)

Date Brightness Start Highest point End Pass type
(mag) Time Alt. Az. Time Alt. Az. Time Alt. Az.
23 Oct 6.1 07:18:36 10° N 07:22:27 19° ENE 07:26:18 10° ESE visible
24 Oct 6.4 06:44:09 10° NNE 06:46:24 13° NE 06:48:39 10° ENE visible
26 Oct 5.4 07:13:04 10° N 07:17:55 32° ENE 07:22:44 10° SE visible
27 Oct 6.0 06:37:57 10° N 06:42:00 21° ENE 06:46:02 10° ESE visible
28 Oct 6.3 06:03:19 10° NNE 06:05:58 14° NE 06:08:37 10° E visible
29 Oct 4.3 07:07:53 10° N 07:13:13 56° ENE 07:18:32 10° SE visible
30 Oct 5.2 06:32:29 10° N 06:37:26 35° ENE 06:42:21 10° SE visible
30 Oct 5.1 21:10:02 10° SSW 21:12:05 25° SSW 21:12:05 25° SSW visible
31 Oct 5.8 05:57:18 10° N 06:01:31 23° ENE 06:05:44 10° ESE visible
31 Oct 3.8 07:38:45 10° NNW 07:43:58 50° WSW 07:49:11 10° S visible
31 Oct 3.8 20:34:35 10° S 20:38:42 48° SE 20:38:42 48° SE visible
31 Oct 6.2 22:18:21 10° WSW 22:19:10 13° W 22:19:10 13° W visible
